Regional Weather Roundup
Issued by NWS

Home | Current Version | Previous Version | Graphics & Text | Print | Product List | Glossary On
Versions: 1 2 3 4 5 6 7 8 9 10 11 12 13 14 15 16 17 18 19 20 21 22 23 24 25 26 27 28 29 30 31 32 33 34 35 36 37 38 39 40 41 42 43 44 45 46 47 48 49 50
000
ASUS43 KLMK 100802
RWRKY
KENTUCKY REGIONAL WEATHER ROUNDUP
NATIONAL WEATHER SERVICE LOUISVILLE KY
300 AM EST WED FEB 10 2016

NOTE "FAIR" INDICATES FEW OR NO CLOUDS BELOW 12,000 FEET
WITH NO SIGNIFICANT WEATHER AND/OR OBSTRUCTIONS TO VISIBILITY.

KYZ001>023-026-027-061>063-070>075-100900-
WESTERN AND SOUTH CENTRAL KENTUCKY

CITY           SKY/WX    TMP DP  RH WIND       PRES   REMARKS
PADUCAH        CLOUDY    23  11  60 N6        30.12R WCI  16
HENDERSON      CLEAR     18   9  68 W16G23    30.09S WCI   3
OWENSBORO      FLURRIES  18  10  70 W10       30.08R WCI   6
HOPKINSVILLE   FLURRIES  20  16  86 NW5       30.09R WCI  13
BOWLING GREEN  FLURRIES  20  13  74 W8        30.07S WCI  10
GLASGOW        NOT AVBL
$$

KYZ024-025-028>034-038-045-046-053-100900-
NORTH CENTRAL KENTUCKY

CITY           SKY/WX    TMP DP  RH WIND       PRES   REMARKS
LOUISVILLE/SDF FLURRIES  19  11  70 W12       30.01S WCI   7
LOUISVILLE/LOU CLOUDY    19  11  70 W12G18    30.01S WCI   7
FORT KNOX      CLOUDY    17  11  77 W9        29.98S WCI   6
$$

KYZ035>037-039>044-047>052-055>060-089>105-100900-
NORTHEAST KENTUCKY

CITY           SKY/WX    TMP DP  RH WIND       PRES   REMARKS
LEXINGTON      LGT SNOW  17  12  80 W13       29.95S WCI   4
COVINGTON      FLURRIES  15   9  76 W9        29.92S WCI   3
FRANKFORT      CLOUDY    18  10  71 W8        29.96S WCI   8
$$

KYZ054-064>069-076>088-106>120-100900-
SOUTHEAST KENTUCKY

CITY           SKY/WX    TMP DP  RH WIND       PRES   REMARKS
JACKSON        CLOUDY    18  11  74 W7        29.91S WCI   9
LONDON         CLOUDY    16  10  77 W8        29.96S WCI   5
SOMERSET       NOT AVBL
MIDDLESBORO    NOT AVBL
MONTICELLO     FLURRIES  18  12  77 W16       30.02S WCI   3
$$




USA.gov is the U.S. government's official web portal to all federal, state and local government web resources and services.